Terminal Aerodrome Forecast
Issued by NWS

Home | Current Version | Previous Version | Graphics & Text | Print | Product List | Glossary On
Versions: 1 2 3 4 5 6 7 8 9 10 11 12 13 14 15
864
FTUS43 KTOP 152338 AAA
TAFMHK
TAF AMD
KMHK 152338Z 1600/1618 36012KT P6SM BKN150
     FM160200 36015G24KT P6SM SCT025 OVC100
     FM160400 35013G20KT P6SM BKN025 OVC080
     FM160700 36015G24KT P6SM SCT025 OVC080
     FM161300 36010KT P6SM SCT200=

USA.gov is the U.S. government's official web portal to all federal, state and local government web resources and services.